Terminal Aerodrome Forecast
Issued by NWS

Home | Current Version | Previous Version | Text Only | Print | Product List | Glossary On
Versions: 1 2 3 4 5 6 7 8 9 10 11 12 13
000
FTUS45 KPSR 050520
TAFIPL
TAF
KIPL 050520Z 0506/0606 14007KT P6SM FEW250
     FM051300 VRB05KT P6SM FEW250
     FM060100 26008KT P6SM FEW250=

USA.gov is the U.S. government's official web portal to all federal, state and local government web resources and services.